Weather History for Ravenna, OH

Change the Weather History Date:

Friday, July 26, 2013

  Actual Average (KCAK) Record (KCAK)
Temperature  
Mean Temperature 64 °F 72 °F  
Max Temperature 77 °F 82 °F 98 °F (1930)
Min Temperature 50 °F 62 °F 44 °F (1904)
Degree Days  
Heating Degree Days 2 0  
Month to date heating degree days 0  
Since 1 June heating degree days 49  
Since 1 July heating degree days 0  
Cooling Degree Days 0 7  
Month to date cooling degree days 182  
Year to date cooling degree days 359  
Since 1 June cooling degree days 317  
Growing Degree Days 14 (Base 50)    
Moisture  
Dew Point 54 °F    
Average Humidity 72    
Maximum Humidity 100    
Minimum Humidity 41    
Precipitation  
Precipitation 0.00 in 0.13 in 1.49 in (2005)
Month to date precipitation 3.44  
Year to date precipitation 23.00  
Snow  
Snow 0.00 in 0.00 in - ()
Month to date snowfall 0.0  
Since 1 June snowfall 0.0  
Since 1 July snowfall 0.0  
Snow Depth -    
Sea Level Pressure  
Sea Level Pressure 30.08 in    
Wind  
Wind Speed 1 mph (SSW)    
Max Wind Speed 6 mph    
Max Gust Speed -    
Visibility 10 miles    
Events      
T = Trace of Precipitation, MM = Missing Value Source: NWS Daily Summary

Daily Weather History Graph

Daily Weather History Graph

Search for Another Location

Airport:

Trip Planner

Search our weather history database for the weather conditions in past years. The results will help you decide how hot, cold, wet, or windy it might be!

Date:

Astronomy

Jul. 26, 2013 Rise Set
Actual Time 6:14 AM EDT 8:47 PM EDT
Civil Twilight 5:43 AM EDT 9:19 PM EDT
Nautical Twilight 5:03 AM EDT 9:58 PM EDT
Astronomical Twilight 4:19 AM EDT 10:42 PM EDT
Moon 10:57 PM EDT (7/26) 10:52 AM EDT (7/26)
Length of Visible Light 15h 35m
Length of Day
14h 32m
Waning Gibbous, 80% of the Moon is Illuminated
Jul 26
Waning Gibbous
Jul 29
Last Quarter
Aug 6
New
Aug 14
First Quarter
Aug 20
Full

Hourly Weather History & Observations

Time (EDT) Temp. Dew Point Humidity Pressure Visibility Wind Dir Wind Speed Gust Speed Precip Events Conditions
12:13 AM 56.3 °F 51.8 °F 85% 30.12 in 10.0 mi Calm Calm - N/A   Clear
12:33 AM 55.0 °F 53.6 °F 95% 30.11 in 10.0 mi Calm Calm - N/A   Clear
12:53 AM 54.9 °F 54.5 °F 99% 30.12 in 10.0 mi Calm Calm - N/A   Clear
1:13 AM 55.9 °F 53.1 °F 90% 30.12 in 10.0 mi Calm Calm - N/A   Clear
1:34 AM 55.2 °F 54.3 °F 97% 30.12 in 10.0 mi Calm Calm - N/A   Clear
1:53 AM 54.5 °F 54.7 °F 100% 30.12 in 10.0 mi Calm Calm - N/A   Clear
2:13 AM 53.6 °F 53.8 °F 100% 30.11 in 10.0 mi Calm Calm - N/A   Clear
2:33 AM 53.8 °F 54.0 °F 100% 30.11 in 10.0 mi Calm Calm - N/A   Clear
2:53 AM - - N/A% 30.10 in 10.0 mi Calm Calm - N/A   Clear
3:13 AM 53.6 °F 53.8 °F 100% 30.10 in 10.0 mi Calm Calm - N/A   Clear
3:33 AM 52.7 °F 52.7 °F 100% 30.10 in 10.0 mi Calm Calm - N/A   Clear
3:53 AM 52.3 °F 52.5 °F 100% 30.10 in 10.0 mi Calm Calm - N/A   Clear
4:13 AM 53.1 °F 53.2 °F 100% 30.10 in 10.0 mi Calm Calm - N/A   Clear
4:33 AM 52.2 °F 52.3 °F 100% 30.09 in 10.0 mi Calm Calm - N/A   Clear
4:53 AM 51.4 °F 51.6 °F 100% 30.09 in 10.0 mi Calm Calm - N/A   Clear
5:13 AM 52.0 °F 52.0 °F 100% 30.10 in 10.0 mi Calm Calm - N/A   Clear
5:33 AM 50.9 °F 50.9 °F 100% 30.09 in 10.0 mi Calm Calm - N/A   Clear
5:53 AM 50.9 °F 51.1 °F 100% 30.10 in 10.0 mi Calm Calm - N/A   Clear
6:13 AM 52.7 °F 52.7 °F 100% 30.11 in 10.0 mi Calm Calm - N/A   Clear
6:33 AM 52.7 °F 52.9 °F 100% 30.11 in 10.0 mi Calm Calm - N/A   Clear
6:53 AM 53.2 °F 53.4 °F 100% 30.12 in 10.0 mi Calm Calm - N/A   Clear
7:13 AM 55.6 °F 55.8 °F 100% 30.12 in 10.0 mi Calm Calm - N/A   Clear
7:33 AM 57.4 °F 57.6 °F 100% 30.11 in 10.0 mi Calm Calm - N/A   Clear
7:53 AM 59.2 °F 58.8 °F 99% 30.11 in 10.0 mi Calm Calm - N/A   Clear
8:13 AM 61.5 °F 59.9 °F 94% 30.11 in 10.0 mi Calm Calm - N/A   Clear
8:33 AM 63.5 °F 57.7 °F 81% 30.11 in 10.0 mi East 3.5 mph - N/A   Clear
8:53 AM 64.0 °F 56.3 °F 76% 30.12 in 10.0 mi Calm Calm - N/A   Clear
9:13 AM 65.5 °F 56.8 °F 74% 30.12 in 10.0 mi Calm Calm - N/A   Clear
9:34 AM 67.8 °F 57.7 °F 70% 30.12 in 10.0 mi Calm Calm - N/A   Clear
9:53 AM 69.1 °F 56.7 °F 65% 30.12 in 10.0 mi Calm Calm - N/A   Clear
10:13 AM 70.3 °F 57.2 °F 63% 30.12 in 10.0 mi Calm Calm - N/A   Clear
10:33 AM 70.3 °F 54.3 °F 57% 30.11 in 10.0 mi Calm Calm - N/A   Clear
10:53 AM 71.4 °F 53.6 °F 53% 30.11 in 10.0 mi Calm Calm - N/A   Clear
11:13 AM 71.8 °F 53.6 °F 53% 30.11 in 10.0 mi WSW 3.5 mph - N/A   Clear
11:34 AM 73.0 °F 54.3 °F 52% 30.12 in 10.0 mi Calm Calm - N/A   Clear
11:53 AM 72.5 °F 51.4 °F 47% 30.11 in 10.0 mi Calm Calm - N/A   Clear
12:13 PM 73.8 °F 51.4 °F 45% 30.11 in 10.0 mi SSW 3.5 mph - N/A   Clear
12:33 PM 73.8 °F 52.9 °F 48% 30.11 in 10.0 mi South 4.6 mph - N/A   Clear
12:53 PM 73.6 °F 51.4 °F 46% 30.10 in 10.0 mi SSE 4.6 mph - N/A   Clear
1:13 PM 73.9 °F 53.1 °F 48% 30.10 in 10.0 mi Calm Calm - N/A   Clear
1:34 PM 74.8 °F 51.8 °F 44% 30.10 in 10.0 mi SSW 4.6 mph - N/A   Clear
1:53 PM 74.8 °F 49.6 °F 41% 30.09 in 10.0 mi Calm Calm - N/A   Clear
2:13 PM 75.6 °F 51.6 °F 43% 30.08 in 10.0 mi SSW 3.5 mph - N/A   Clear
2:33 PM 75.2 °F 51.3 °F 43% 30.08 in 10.0 mi Calm Calm - N/A   Clear
2:53 PM 76.3 °F 52.0 °F 43% 30.07 in 10.0 mi WSW 3.5 mph - N/A   Clear
3:13 PM 76.5 °F 52.0 °F 42% 30.07 in 10.0 mi SW 5.8 mph - N/A   Clear
3:33 PM 75.7 °F 53.4 °F 46% 30.06 in 10.0 mi South 4.6 mph - N/A   Clear
3:53 PM 74.7 °F 53.6 °F 48% 30.06 in 10.0 mi WSW 3.5 mph - N/A   Scattered Clouds
4:13 PM 77.0 °F 55.0 °F 47% 30.05 in 10.0 mi WSW 5.8 mph - N/A   Clear
4:33 PM 77.0 °F 55.4 °F 47% 30.04 in 10.0 mi SSE 4.6 mph - N/A   Scattered Clouds
4:53 PM 77.0 °F 53.1 °F 43% 30.03 in 10.0 mi SW 4.6 mph - N/A   Scattered Clouds
5:13 PM 77.0 °F 54.0 °F 45% 30.03 in 10.0 mi SSW 3.5 mph - N/A   Scattered Clouds
5:33 PM 77.4 °F 51.8 °F 41% 30.03 in 10.0 mi South 3.5 mph - N/A   Scattered Clouds
5:53 PM 77.0 °F 52.2 °F 42% 30.02 in 10.0 mi WSW 5.8 mph - N/A   Clear
6:13 PM 76.8 °F 52.7 °F 43% 30.02 in 10.0 mi SSW 4.6 mph - N/A   Clear
6:33 PM 76.6 °F 52.7 °F 43% 30.02 in 10.0 mi Calm Calm - N/A   Clear
6:53 PM 76.6 °F 51.6 °F 42% 30.01 in 10.0 mi Calm Calm - N/A   Clear
7:13 PM 75.6 °F 52.7 °F 45% 30.01 in 10.0 mi Calm Calm - N/A   Clear
7:33 PM 75.0 °F 52.5 °F 45% 30.01 in 10.0 mi South 3.5 mph - N/A   Clear
7:53 PM 74.3 °F 51.4 °F 45% 30.01 in 10.0 mi South 3.5 mph - N/A   Clear
8:13 PM 72.7 °F 52.5 °F 49% 30.01 in 10.0 mi Calm Calm - N/A   Clear
8:33 PM 69.8 °F 53.8 °F 57% 30.02 in 10.0 mi Calm Calm - N/A   Clear
8:53 PM 68.0 °F 54.7 °F 62% 30.02 in 10.0 mi Calm Calm - N/A   Clear
9:13 PM 67.3 °F 54.0 °F 62% 30.02 in 10.0 mi Calm Calm - N/A   Clear
9:33 PM 65.7 °F 55.8 °F 70% 30.03 in 10.0 mi Calm Calm - N/A   Clear
9:53 PM 64.8 °F 55.8 °F 73% 30.02 in 10.0 mi Calm Calm - N/A   Clear
10:13 PM 62.8 °F 61.0 °F 94% 30.03 in 10.0 mi Calm Calm - N/A   Clear
10:34 PM 62.2 °F 61.5 °F 97% 30.02 in 10.0 mi Calm Calm - N/A   Clear
10:53 PM 61.2 °F 61.2 °F 100% 30.02 in 10.0 mi Calm Calm - N/A   Clear
11:13 PM 61.2 °F 61.2 °F 100% 30.01 in 10.0 mi Calm Calm - N/A   Clear
11:34 PM 61.0 °F 60.8 °F 99% 30.00 in 10.0 mi Calm Calm - N/A   Clear
11:53 PM 60.6 °F 60.8 °F 100% 30.00 in 10.0 mi Calm Calm - N/A   Clear